N4322X KICT-KTUL

Flight info

Callsign N4322X
Flight time 0h 42m
Altitude 5000
Route JAMEY PER
Aircraft P28A/L-SBGRY/EB1

Departure

Time 2026-04-27 19:42
Airport Wichita Dwight D. Eisenhower National Airport (KICT)

Arrival

Time 2026-04-27 20:25
Airport Tulsa International Airport (KTUL)
Time Latitude Longitude Altitude Speed Heading
2026-04-27 19:22 37.65628 -97.42373 1320 ft 0 kts 290°
2026-04-27 19:37 37.65626 -97.42376 1320 ft 3 kts 201°
2026-04-27 19:37 37.65586 -97.42349 1320 ft 9 kts 108°
2026-04-27 19:37 37.65544 -97.42329 1320 ft 13 kts 187°
2026-04-27 19:37 37.65374 -97.42410 1320 ft 23 kts 201°
2026-04-27 19:38 37.65265 -97.42458 1320 ft 26 kts 193°
2026-04-27 19:38 37.65092 -97.42531 1320 ft 24 kts 188°
2026-04-27 19:38 37.64968 -97.42609 1319 ft 16 kts 229°
2026-04-27 19:38 37.64945 -97.42748 1320 ft 8 kts 267°
2026-04-27 19:39 37.64923 -97.42833 1320 ft 12 kts 223°
2026-04-27 19:39 37.64843 -97.42842 1320 ft 13 kts 175°
2026-04-27 19:39 37.64771 -97.42836 1320 ft 17 kts 175°
2026-04-27 19:39 37.64582 -97.42810 1319 ft 23 kts 175°
2026-04-27 19:40 37.64431 -97.42792 1319 ft 18 kts 180°
2026-04-27 19:40 37.64327 -97.42811 1319 ft 11 kts 218°
2026-04-27 19:40 37.64311 -97.42835 1319 ft 0 kts 243°
2026-04-27 19:41 37.64305 -97.42849 1319 ft 11 kts 242°
2026-04-27 19:41 37.64381 -97.43012 1320 ft 37 kts 332°
2026-04-27 19:41 37.64730 -97.43264 1325 ft 72 kts 329°
2026-04-27 19:42 37.65189 -97.43533 1497 ft 72 kts 331°
2026-04-27 19:42 37.65590 -97.43868 1679 ft 69 kts 320°
2026-04-27 19:42 37.65796 -97.44170 1777 ft 69 kts 314°
2026-04-27 19:42 37.66099 -97.44634 1941 ft 68 kts 320°
2026-04-27 19:43 37.66347 -97.45130 2093 ft 71 kts 290°
2026-04-27 19:43 37.66316 -97.45983 2287 ft 78 kts 255°
2026-04-27 19:43 37.65934 -97.46512 2443 ft 86 kts 227°
2026-04-27 19:43 37.65365 -97.46816 2598 ft 97 kts 187°
2026-04-27 19:44 37.64910 -97.46742 2701 ft 100 kts 173°
2026-04-27 19:44 37.64042 -97.46309 2900 ft 103 kts 144°
2026-04-27 19:44 37.63395 -97.45955 3031 ft 102 kts 171°
2026-04-27 19:44 37.62693 -97.45779 3169 ft 103 kts 174°
2026-04-27 19:45 37.61987 -97.45631 3314 ft 103 kts 176°
2026-04-27 19:45 37.61266 -97.45485 3458 ft 104 kts 176°
2026-04-27 19:45 37.60797 -97.45390 3553 ft 104 kts 176°
2026-04-27 19:45 37.59847 -97.45203 3748 ft 103 kts 176°
2026-04-27 19:46 37.59367 -97.45106 3839 ft 104 kts 177°
2026-04-27 19:46 37.58418 -97.44918 4025 ft 103 kts 177°
2026-04-27 19:46 37.57949 -97.44823 4121 ft 103 kts 178°
2026-04-27 19:46 37.57240 -97.44683 4260 ft 102 kts 177°
2026-04-27 19:47 37.56305 -97.44498 4446 ft 101 kts 177°
2026-04-27 19:47 37.55851 -97.44406 4537 ft 101 kts 179°
2026-04-27 19:47 37.54929 -97.44222 4724 ft 99 kts 178°
2026-04-27 19:47 37.54242 -97.44085 4866 ft 98 kts 178°
2026-04-27 19:48 37.53560 -97.43950 4975 ft 101 kts 179°
2026-04-27 19:48 37.53077 -97.43858 4994 ft 108 kts 179°
2026-04-27 19:48 37.52301 -97.43713 4998 ft 115 kts 178°
2026-04-27 19:48 37.51498 -97.43559 4999 ft 119 kts 178°
2026-04-27 19:49 37.50376 -97.43340 4990 ft 123 kts 179°
2026-04-27 19:49 37.49520 -97.43170 4986 ft 124 kts 178°
2026-04-27 19:49 37.48673 -97.43005 4986 ft 124 kts 178°
2026-04-27 19:49 37.47819 -97.42836 4980 ft 124 kts 177°
2026-04-27 19:50 37.46951 -97.42663 4977 ft 125 kts 178°
2026-04-27 19:50 37.46104 -97.42494 4980 ft 124 kts 178°
2026-04-27 19:50 37.45248 -97.42325 4977 ft 124 kts 178°
2026-04-27 19:50 37.44395 -97.42156 4974 ft 123 kts 178°
2026-04-27 19:51 37.43544 -97.41986 4976 ft 123 kts 178°
2026-04-27 19:51 37.42699 -97.41819 4975 ft 123 kts 178°
2026-04-27 19:51 37.41852 -97.41653 4976 ft 123 kts 178°
2026-04-27 19:51 37.41006 -97.41485 4978 ft 123 kts 178°
2026-04-27 19:52 37.40160 -97.41318 4976 ft 123 kts 178°
2026-04-27 19:52 37.39591 -97.41205 4976 ft 123 kts 178°
2026-04-27 19:52 37.38749 -97.41038 4979 ft 123 kts 178°
2026-04-27 19:52 37.37611 -97.40813 4962 ft 124 kts 178°
2026-04-27 19:53 37.36185 -97.40532 4958 ft 124 kts 178°
2026-04-27 19:53 37.35329 -97.40363 4963 ft 124 kts 178°
2026-04-27 19:53 37.34190 -97.40139 4962 ft 124 kts 177°
2026-04-27 19:54 37.33624 -97.40028 4961 ft 124 kts 178°
2026-04-27 19:54 37.32777 -97.39858 4965 ft 124 kts 178°
2026-04-27 19:54 37.31918 -97.39688 4967 ft 124 kts 178°
2026-04-27 19:54 37.30775 -97.39465 4965 ft 123 kts 178°
2026-04-27 19:55 37.30215 -97.39351 4966 ft 124 kts 175°
2026-04-27 19:55 37.29103 -97.38933 4968 ft 126 kts 168°
2026-04-27 19:55 37.28549 -97.38699 4963 ft 126 kts 167°
2026-04-27 19:55 37.27437 -97.38228 4965 ft 126 kts 167°
2026-04-27 19:56 37.26885 -97.37993 4962 ft 126 kts 167°
2026-04-27 19:56 37.25766 -97.37519 4968 ft 126 kts 167°
2026-04-27 19:56 37.25213 -97.37285 4968 ft 126 kts 168°
2026-04-27 19:56 37.24105 -97.36813 4966 ft 126 kts 168°
2026-04-27 19:57 37.23545 -97.36575 4966 ft 126 kts 167°
2026-04-27 19:57 37.22714 -97.36223 4967 ft 126 kts 167°
2026-04-27 19:57 37.21889 -97.35875 4968 ft 125 kts 167°
2026-04-27 19:57 37.20782 -97.35405 4968 ft 125 kts 167°
2026-04-27 19:58 37.20229 -97.35171 4967 ft 125 kts 167°
2026-04-27 19:58 37.19400 -97.34819 4964 ft 125 kts 167°
2026-04-27 19:58 37.18576 -97.34470 4965 ft 125 kts 167°
2026-04-27 19:58 37.17745 -97.34120 4962 ft 125 kts 166°
2026-04-27 19:59 37.16922 -97.33771 4960 ft 125 kts 167°
2026-04-27 19:59 37.15815 -97.33300 4965 ft 125 kts 167°
2026-04-27 19:59 37.15262 -97.33069 4964 ft 126 kts 168°
2026-04-27 19:59 37.14438 -97.32715 4963 ft 126 kts 167°
2026-04-27 20:00 37.13350 -97.32245 4960 ft 125 kts 167°
2026-04-27 20:00 37.00178 -97.26675 4953 ft 126 kts 168°
2026-04-27 20:00 36.84074 -97.19891 4924 ft 126 kts 168°
2026-04-27 20:00 36.83534 -97.19664 4950 ft 123 kts 168°
2026-04-27 20:01 36.82718 -97.19324 4965 ft 123 kts 169°
2026-04-27 20:01 36.81903 -97.18984 4962 ft 123 kts 168°
2026-04-27 20:01 36.81088 -97.18645 4960 ft 124 kts 168°
2026-04-27 20:01 36.79992 -97.18188 4965 ft 124 kts 168°
2026-04-27 20:02 36.79441 -97.17956 4961 ft 124 kts 168°
2026-04-27 20:02 36.78618 -97.17612 4959 ft 125 kts 168°
2026-04-27 20:02 36.77793 -97.17268 4961 ft 124 kts 168°
2026-04-27 20:02 36.76969 -97.16925 4958 ft 125 kts 167°
2026-04-27 20:03 36.76143 -97.16579 4949 ft 124 kts 167°
2026-04-27 20:03 36.75320 -97.16235 4950 ft 124 kts 167°
2026-04-27 20:03 36.74617 -97.15617 4961 ft 131 kts 128°
2026-04-27 20:03 36.74236 -97.14578 4962 ft 133 kts 110°
2026-04-27 20:04 36.73935 -97.13483 4951 ft 134 kts 108°
2026-04-27 20:04 36.73640 -97.12389 4952 ft 133 kts 109°
2026-04-27 20:04 36.73338 -97.11284 4942 ft 133 kts 109°
2026-04-27 20:04 36.73036 -97.10196 4944 ft 132 kts 110°
2026-04-27 20:05 36.72736 -97.09119 4943 ft 132 kts 110°
2026-04-27 20:05 36.72432 -97.08032 4945 ft 132 kts 110°
2026-04-27 20:05 36.70340 -97.00653 4870 ft 133 kts 110°
2026-04-27 20:05 36.65415 -96.83362 4857 ft 133 kts 111°
2026-04-27 20:06 36.60450 -96.66119 4944 ft 134 kts 111°
2026-04-27 20:06 36.55376 -96.48553 4972 ft 135 kts 112°
2026-04-27 20:06 36.52087 -96.37219 4954 ft 136 kts 113°
2026-04-27 20:06 36.51761 -96.36114 4945 ft 135 kts 114°
2026-04-27 20:07 36.51432 -96.35018 4945 ft 135 kts 114°
2026-04-27 20:07 36.51105 -96.33926 4943 ft 134 kts 115°
2026-04-27 20:07 36.50786 -96.32848 4944 ft 134 kts 114°
2026-04-27 20:07 36.50360 -96.31395 4945 ft 133 kts 114°
2026-04-27 20:08 36.50147 -96.30666 4946 ft 133 kts 114°
2026-04-27 20:08 36.49829 -96.29584 4946 ft 133 kts 114°
2026-04-27 20:08 36.49515 -96.28507 4946 ft 133 kts 114°
2026-04-27 20:08 36.49197 -96.27422 4947 ft 134 kts 114°
2026-04-27 20:09 36.48869 -96.26331 4949 ft 134 kts 115°
2026-04-27 20:09 36.48539 -96.25248 4950 ft 134 kts 115°
2026-04-27 20:09 36.48206 -96.24162 4948 ft 134 kts 115°
2026-04-27 20:09 36.47879 -96.23087 4947 ft 134 kts 116°
2026-04-27 20:10 36.47549 -96.22007 4914 ft 137 kts 115°
2026-04-27 20:10 36.47199 -96.20877 4796 ft 143 kts 115°
2026-04-27 20:10 36.46840 -96.19710 4675 ft 146 kts 115°
2026-04-27 20:10 36.46476 -96.18525 4554 ft 147 kts 115°
2026-04-27 20:11 36.46107 -96.17328 4434 ft 148 kts 115°
2026-04-27 20:11 36.45739 -96.16131 4310 ft 148 kts 114°
2026-04-27 20:11 36.45370 -96.14932 4189 ft 148 kts 114°
2026-04-27 20:11 36.45008 -96.13754 4065 ft 145 kts 113°
2026-04-27 20:12 36.44655 -96.12605 3940 ft 143 kts 114°
2026-04-27 20:12 36.44301 -96.11454 3807 ft 142 kts 113°
2026-04-27 20:12 36.43951 -96.10314 3684 ft 142 kts 113°
2026-04-27 20:12 36.43598 -96.09167 3556 ft 140 kts 113°
2026-04-27 20:13 36.43135 -96.07662 3437 ft 136 kts 113°
2026-04-27 20:13 36.42914 -96.06943 3425 ft 132 kts 112°
2026-04-27 20:13 36.42593 -96.05891 3417 ft 128 kts 112°
2026-04-27 20:13 36.42285 -96.04879 3421 ft 125 kts 113°
2026-04-27 20:14 36.41976 -96.03873 3431 ft 124 kts 113°
2026-04-27 20:14 36.41666 -96.02871 3427 ft 123 kts 113°
2026-04-27 20:14 36.41361 -96.01881 3418 ft 123 kts 114°
2026-04-27 20:14 36.41104 -96.00881 3419 ft 123 kts 99°
2026-04-27 20:15 36.41026 -95.99819 3424 ft 123 kts 93°
2026-04-27 20:15 36.40980 -95.98752 3427 ft 123 kts 93°
2026-04-27 20:15 36.40924 -95.97349 3419 ft 123 kts 92°
2026-04-27 20:15 36.40885 -95.96284 3429 ft 123 kts 93°
2026-04-27 20:16 36.40857 -95.95570 3424 ft 124 kts 94°
2026-04-27 20:16 36.40811 -95.94507 3434 ft 123 kts 93°
2026-04-27 20:16 36.40762 -95.93460 3426 ft 119 kts 93°
2026-04-27 20:16 36.40717 -95.92439 3432 ft 117 kts 93°
2026-04-27 20:17 36.40671 -95.91432 3428 ft 116 kts 93°
2026-04-27 20:17 36.40628 -95.90439 3425 ft 114 kts 94°
2026-04-27 20:17 36.40474 -95.89494 3401 ft 112 kts 122°
2026-04-27 20:17 36.39910 -95.88829 3287 ft 111 kts 163°
2026-04-27 20:18 36.39162 -95.88687 3188 ft 109 kts 189°
2026-04-27 20:18 36.38394 -95.88717 3086 ft 111 kts 191°
2026-04-27 20:18 36.37619 -95.88767 2973 ft 113 kts 191°
2026-04-27 20:18 36.36831 -95.88819 2859 ft 114 kts 192°
2026-04-27 20:19 36.36034 -95.88872 2755 ft 115 kts 192°
2026-04-27 20:19 36.35234 -95.88922 2652 ft 114 kts 193°
2026-04-27 20:19 36.34458 -95.88975 2637 ft 108 kts 192°
2026-04-27 20:19 36.33484 -95.89035 2620 ft 103 kts 193°
2026-04-27 20:20 36.32776 -95.89080 2625 ft 100 kts 193°
2026-04-27 20:20 36.32311 -95.89111 2629 ft 98 kts 192°
2026-04-27 20:20 36.31638 -95.89159 2631 ft 97 kts 193°
2026-04-27 20:20 36.30953 -95.89211 2610 ft 99 kts 192°
2026-04-27 20:21 36.30283 -95.89259 2551 ft 91 kts 195°
2026-04-27 20:21 36.29658 -95.89307 2413 ft 90 kts 194°
2026-04-27 20:21 36.29037 -95.89351 2287 ft 87 kts 195°
2026-04-27 20:21 36.28440 -95.89389 2165 ft 85 kts 193°
2026-04-27 20:22 36.27852 -95.89429 2054 ft 84 kts 195°
2026-04-27 20:22 36.27274 -95.89469 1941 ft 82 kts 195°
2026-04-27 20:22 36.26702 -95.89503 1842 ft 81 kts 197°
2026-04-27 20:22 36.26147 -95.89545 1747 ft 80 kts 197°
2026-04-27 20:23 36.25580 -95.89584 1625 ft 82 kts 197°
2026-04-27 20:23 36.25011 -95.89620 1509 ft 82 kts 197°
2026-04-27 20:23 36.24438 -95.89659 1390 ft 82 kts 194°
2026-04-27 20:23 36.23863 -95.89697 1283 ft 82 kts 194°
2026-04-27 20:24 36.23289 -95.89738 1174 ft 84 kts 192°
2026-04-27 20:24 36.22711 -95.89768 1098 ft 79 kts 193°
2026-04-27 20:24 36.22149 -95.89789 989 ft 79 kts 191°
2026-04-27 20:24 36.21595 -95.89830 878 ft 81 kts 192°
2026-04-27 20:25 36.21044 -95.89871 761 ft 77 kts 192°
2026-04-27 20:25 36.20533 -95.89916 654 ft 63 kts 191°
2026-04-27 20:25 36.20205 -95.89950 654 ft 35 kts 184°
2026-04-27 20:25 36.20147 -95.89973 657 ft 6 kts 275°
2026-04-27 20:26 36.20153 -95.90006 658 ft 6 kts 299°
2026-04-27 20:26 36.20130 -95.90114 657 ft 21 kts 223°
2026-04-27 20:26 36.19999 -95.90231 661 ft 18 kts 211°
2026-04-27 20:26 36.19917 -95.90287 663 ft 3 kts 201°
2026-04-27 20:27 36.19881 -95.90313 663 ft 5 kts 221°
2026-04-27 20:27 36.19867 -95.90340 663 ft 0 kts 261°